Lake Davenport Weather Center

Moon Phase Calendar



Lake Davenport Water Level
Online Cameras

 


      

Current Conditions in Four Corners
5/23/2022 10:00:29 AM

82°F
Feels Like 87
Clouds
Humidity
76%
Pressure
30.12"
Wind
6 mph (SSE)
Dew Point
73°F
UV Index
4/10 (Moderate)
Visibility
6 mi

Hourly Forecast

Date & Time Mon, May 23
10:00 AM
Mon, May 23
11:00 AM
Mon, May 23
12:00 PM
Mon, May 23
1:00 PM
Mon, May 23
2:00 PM
Mon, May 23
3:00 PM
Mon, May 23
4:00 PM
Mon, May 23
5:00 PM
Mon, May 23
6:00 PM
Mon, May 23
7:00 PM
Mon, May 23
8:00 PM
Mon, May 23
9:00 PM
Mon, May 23
10:00 PM
Mon, May 23
11:00 PM
Tue, May 24
12:00 AM
Tue, May 24
1:00 AM
Tue, May 24
2:00 AM
Tue, May 24
3:00 AM
Tue, May 24
4:00 AM
Tue, May 24
5:00 AM
Tue, May 24
6:00 AM
Tue, May 24
7:00 AM
Tue, May 24
8:00 AM
Tue, May 24
9:00 AM
Tue, May 24
10:00 AM
Tue, May 24
11:00 AM
Tue, May 24
12:00 PM
Tue, May 24
1:00 PM
Tue, May 24
2:00 PM
Tue, May 24
3:00 PM
Tue, May 24
4:00 PM
Tue, May 24
5:00 PM
Tue, May 24
6:00 PM
Tue, May 24
7:00 PM
Tue, May 24
8:00 PM
Tue, May 24
9:00 PM
Tue, May 24
10:00 PM
Tue, May 24
11:00 PM
Wed, May 25
12:00 AM
Wed, May 25
1:00 AM
Wed, May 25
2:00 AM
Wed, May 25
3:00 AM
Wed, May 25
4:00 AM
Wed, May 25
5:00 AM
Wed, May 25
6:00 AM
Wed, May 25
7:00 AM
Wed, May 25
8:00 AM
Wed, May 25
9:00 AM
Condition
Clouds

Clouds

Clouds

Clouds

Clouds

Clouds

Clouds

Clouds

Clouds

Clouds

Clouds

Clouds

Clouds

Clouds

Clouds

Clouds

Clouds

Clear

Clear

Clear

Clear

Clouds

Clouds

Clouds

Clouds

Clouds

Clouds

Clouds

Clouds

Clouds

Clouds

Clouds

Clouds

Clouds

Clouds

Clouds

Clouds

Clouds

Clouds

Clouds

Clouds

Clouds

Clouds

Clouds

Clouds

Clouds

Clouds

Clouds
Temperature 82°F82°F84°F86°F89°F92°F93°F93°F92°F88°F83°F82°F79°F78°F77°F76°F76°F75°F74°F74°F73°F73°F75°F78°F81°F84°F86°F89°F90°F92°F92°F91°F87°F83°F81°F79°F78°F77°F77°F76°F75°F74°F73°F73°F72°F72°F75°F78°F
Feels Like 87°F87°F89°F90°F91°F93°F93°F93°F93°F91°F86°F84°F79°F79°F78°F77°F77°F76°F75°F75°F74°F74°F76°F79°F84°F86°F87°F89°F91°F91°F91°F90°F87°F84°F82°F79°F79°F78°F78°F77°F75°F75°F74°F74°F73°F73°F76°F79°F
Cloudiness 31%33%35%33%30%20%33%35%43%52%54%40%23%17%14%12%11%5%5%5%6%12%13%35%34%34%37%39%48%79%89%89%91%93%94%100%100%100%100%100%100%100%99%96%92%93%94%98%
Visibility 6 mi6 mi6 mi6 mi6 mi6 mi6 mi6 mi6 mi6 mi6 mi6 mi6 mi6 mi6 mi6 mi6 mi6 mi6 mi6 mi6 mi6 mi6 mi6 mi6 mi6 mi6 mi6 mi6 mi6 mi6 mi6 mi6 mi6 mi6 mi6 mi6 mi6 mi6 mi6 mi6 mi6 mi6 mi6 mi6 mi6 mi6 mi6 mi
Precipitation 0%0%0%0%0%0%0%0%0%0%1%0%0%3%1%1%0%0%0%0%0%0%0%0%0%0%0%0%0%0%0%0%0%0%0%0%0%0%0%0%0%0%0%0%0%0%0%0%
Humidity 76%71%64%56%46%37%35%34%37%50%62%61%67%74%76%77%79%82%83%85%86%87%81%73%62%53%46%42%39%35%33%34%42%48%57%66%73%77%75%75%77%80%84%88%90%89%82%71%
Dew Point 73°F72°F70°F69°F66°F62°F61°F61°F62°F67°F68°F67°F67°F69°F69°F69°F69°F69°F69°F69°F69°F69°F69°F69°F67°F65°F63°F62°F62°F61°F59°F59°F61°F62°F64°F67°F68°F69°F68°F67°F67°F67°F68°F69°F69°F69°F69°F68°F
Pressure 30.12"30.12"30.12"30.09"30.06"30.03"30.03"30"29.97"30"30.03"30.03"30.06"30.06"30.06"30.06"30.03"30.03"30"30"30.03"30.03"30.06"30.06"30.06"30.06"30.06"30.06"30.03"30"29.97"29.97"29.97"29.97"30"30"30.03"30.06"30.06"30.06"30.06"30.06"30.06"30.06"30.03"30.06"30.06"30.09"
Wind Speed 10.2 mph9.4 mph8.6 mph7.8 mph6.6 mph5.5 mph4.3 mph3.2 mph3.8 mph10.1 mph13.8 mph13.1 mph11.2 mph10.2 mph10.6 mph10.1 mph9.8 mph9.2 mph8.8 mph8 mph7 mph6.4 mph8.9 mph9.6 mph9.4 mph9.2 mph8.8 mph8.2 mph7.9 mph8 mph9.5 mph11.6 mph12.9 mph14.1 mph14.5 mph15 mph13.4 mph12.2 mph11.3 mph10.2 mph9.2 mph8.1 mph6.9 mph6.8 mph7.3 mph7.8 mph9.4 mph11.1 mph
Wind
Direction
144°
SE
149°
SSE
148°
SSE
154°
SSE
161°
SSE
166°
SSE
172°
S
165°
SSE
120°
ESE
96°
E
101°
E
114°
ESE
121°
ESE
124°
SE
130°
SE
131°
SE
128°
SE
130°
SE
137°
SE
140°
SE
139°
SE
138°
SE
143°
SE
145°
SE
145°
SE
139°
SE
132°
SE
128°
SE
128°
SE
127°
SE
117°
ESE
104°
ESE
90°
E
89°
E
97°
E
112°
ESE
117°
ESE
117°
ESE
121°
ESE
126°
SE
136°
SE
136°
SE
126°
SE
121°
ESE
126°
SE
130°
SE
131°
SE
128°
SE

Daily Forecast

Date High Low Precip. Humidity
Today
May 23

Clouds
93 °F
74 °F
13%
56%
Tuesday
May 24

Clouds
92 °F
73 °F
1%
42%
Wednesday
May 25

Rain
91 °F
73 °F
46%
37%
Thursday
May 26

Clouds
85 °F
74 °F
31%
49%
Friday
May 27

Rain
92 °F
72 °F
88%
39%
Saturday
May 28

Rain
89 °F
72 °F
88%
54%
Sunday
May 29

Clear
91 °F
71 °F
16%
34%
Monday
May 30

Rain
92 °F
70 °F
88%
41%
Tuesday
May 31

Rain
92 °F
70 °F
97%
43%
Wednesday
Jun 1

Rain
85 °F
69 °F
95%
53%
Thursday
Jun 2

Rain
88 °F
72 °F
47%
50%
Friday
Jun 3

Rain
89 °F
72 °F
79%
49%
Saturday
Jun 4

Clouds
93 °F
73 °F
38%
39%
Sunday
Jun 5

Rain
92 °F
73 °F
97%
44%
Monday
Jun 6

Rain
91 °F
71 °F
92%
44%
Tuesday
Jun 7

Clouds
90 °F
74 °F
63%
46%

Temperature 8-14 Day Outlook



Precipitation 8-14 Day Outlook




Quick Links
Lake Davenport News
Lake Davenport Photos
Lake Davenport Videos




About Us
Contact Us
Site Map
Search Site
Advertise With Us
   
Davenport.LakesOnline.com
THE LAKE DAVENPORT WEBSITE

Copyright 2022, Lakes Online
Privacy    |    Legal